This is the latest recevied weather packets stored in our database for station/object N0NAI-13. If no packets are shown the sender has not sent any weather packets the latest 10 day(s).
| Time | Temp. | Humidity | Pressure | Rain* | Wind** | Luminosity | Snow |
|---|---|---|---|---|---|---|---|
| 1777397723 | 13.33° C | 59% | 1016.9 hPa | 0 mm | - | - | - |
| 1777397126 | 12.78° C | 61% | 1017.1 hPa | 0 mm | - | - | - |
| 1777396529 | 12.78° C | 58% | 1017.1 hPa | 0 mm | - | - | - |
| 1777395926 | 12.78° C | 60% | 1017.1 hPa | 0 mm | - | - | - |
| 1777395329 | 12.78° C | 58% | 1017.2 hPa | 0 mm | - | - | - |
| 1777394732 | 13.33° C | 55% | 1017.2 hPa | 0 mm | - | - | - |
| 1777394117 | 13.33° C | 55% | 1017.2 hPa | 0 mm | - | - | - |
| 1777393520 | 13.89° C | 55% | 1017.2 hPa | 0 mm | - | - | - |
| 1777392923 | 13.89° C | 57% | 1017.1 hPa | 0 mm | - | - | - |
| 1777392326 | 13.33° C | 59% | 1016.7 hPa | 0 mm | - | - | - |
| 1777391723 | 12.22° C | 60% | 1016.5 hPa | 0 mm | - | - | - |
| 1777391120 | 11.67° C | 63% | 1016.7 hPa | 0 mm | - | - | - |
| 1777390516 | 12.78° C | 63% | 1016.9 hPa | 0 mm | - | - | - |
| 1777389919 | 11.67° C | 65% | 1016.9 hPa | 0 mm | - | - | - |
| 1777389322 | 11.67° C | 68% | 1017 hPa | 0 mm | - | - | - |
| 1777388725 | 11.67° C | 71% | 1016.8 hPa | 0 mm | - | - | - |
| 1777388128 | 11.11° C | 72% | 1016.7 hPa | 0 mm | - | - | - |
| 1777387531 | 11.11° C | 74% | 1016.6 hPa | 0 mm | - | - | - |
| 1777386915 | 10.56° C | 73% | 1016.5 hPa | 0 mm | - | - | - |
| 1777386318 | 10° C | 78% | 1016.3 hPa | 0 mm | - | - | - |
| 1777385721 | 9.44° C | 79% | 1016.1 hPa | 0 mm | - | - | - |
| 1777385124 | 8.89° C | 81% | 1016.3 hPa | 0 mm | - | - | - |
| 1777384527 | 8.33° C | 83% | 1016.4 hPa | 0 mm | - | - | - |
| 1777383930 | 8.33° C | 85% | 1016.3 hPa | 0 mm | - | - | - |
| 1777383333 | 7.78° C | 86% | 1016.2 hPa | 0 mm | - | - | - |
* Rain latest hour (hover to see other rain measurements)
** Current wind speed in m/s (hover to see current wind gust speed)